RH
87 78 79 79 83 81 84 94 95 97 93 91 93 93 72 73 84 90 88 93 92 91 90 89 89 89 89 92 96 94 90 94 86 84 85 86 86 96 96 88 92 90 82
90 81 82 78 78 83 79 89 85 87 92 88 84 86 95 95 96 96 92 88 88 96 88 86 85 85 90 92 94 96 96 77 77 82 82 86 85 95 97 89 91 96 96
94 86 88 81 81 82 81 84 86 86 87 85 82 86 90 93 93 94 86 93 95 94 94 90 89 95 90 95 90 91 78 77 81 83 81 87 86 91 88 82 94 96 97
93 88 91 85 84 81 85 81 83 88 87 87 90 88 90 91 93 97 89 90 92 89 91 83 86 94 96 86 85 84 77 77 82 84 85 85 80 89 90 92 92 94 96
91 93 87 88 90 86 85 83 82 89 85 84 84 85 92 94 94 95 94 88 88 84 86 82 81 83 80 73 74 81 78 83 83 86 85 86 81 89 89 89 90 93 93
94 94 92 90 89 89 88 86 86 88 84 81 75 91 93 90 90 90 89 82 81 82 85 81 82 82 72 62 66 75 77 76 85 88 85 84 82 86 82 91 95 96 95
58 90 96 94 91 91 89 89 86 87 83 80 90 80 81 88 84 86 81 88 89 87 82 79 77 85 76 64 57 69 74 70 86 82 81 80 80 85 85 86 85 92 93
23 27 50 90 93 90 88 89 88 86 82 86 89 86 84 89 85 83 83 84 89 89 86 70 71 76 68 54 47 58 70 72 85 77 69 76 75 88 91 91 91 88 91
21 21 23 44 87 89 88 86 87 82 80 85 91 89 78 86 88 84 86 94 88 90 85 83 77 62 53 44 38 52 68 76 82 76 67 72 84 92 90 92 86 82 84
21 21 20 23 34 83 89 87 83 83 82 81 84 84 78 89 87 90 95 97 91 90 85 78 72 68 53 42 42 59 72 85 75 68 62 71 78 98 94 88 86 84 80
23 22 21 22 25 37 84 89 85 84 83 83 85 85 80 90 89 90 98 97 92 89 81 84 86 76 65 51 63 81 88 83 73 64 62 71 96 98 94 90 90 88 84
26 24 25 22 24 28 37 76 87 88 81 81 84 86 82 90 90 87 99 92 89 82 87 92 96 82 61 88 88 93 86 78 67 64 63 78 100 94 93 92 90 88 88
28 27 26 26 24 28 28 28 33 67 85 81 81 83 87 87 99 91 99 92 91 86 90 90 95 70 71 85 91 85 76 69 66 64 69 83 95 93 94 88 89 87 86
31 28 26 26 26 25 26 26 26 28 27 58 88 84 87 89 98 93 97 87 76 83 86 95 85 70 73 86 81 74 69 66 66 72 85 96 95 93 90 81 85 84 84
34 29 28 28 27 26 26 26 31 28 27 25 68 100 99 94 99 100 98 86 69 78 82 96 80 76 74 83 77 70 67 71 88 99 99 100 94 90 87 83 83 82 81
34 33 32 30 29 29 27 26 27 34 35 42 60 84 100 100 100 100 100 96 85 82 87 91 77 72 82 81 77 77 90 90 88 96 94 88 76 79 82 82 80 79 78
35 37 36 32 31 30 27 27 27 29 44 55 73 91 98 99 100 100 92 90 97 89 94 95 77 75 85 86 84 98 93 94 100 93 87 83 82 75 64 76 76 76 77
33 33 33 32 30 29 29 29 29 33 55 69 70 100 96 98 98 98 98 92 86 94 94 96 79 75 87 88 97 100 90 94 92 90 87 79 74 72 66 71 76 74 78
34 32 31 30 30 30 30 31 34 44 65 74 77 98 98 95 99 100 96 81 90 75 92 92 80 75 84 90 95 94 87 83 79 74 72 72 69 66 64 68 71 81 79
30 29 28 25 25 25 27 33 44 53 72 78 81 97 95 82 96 98 94 90 89 86 83 90 85 77 84 88 84 76 70 66 65 61 55 52 54 55 54 57 76 81 89
26 25 25 28 30 30 30 31 46 78 86 98 100 99 96 94 91 98 89 91 88 88 92 83 81 76 94 84 78 83 83 76 72 70 65 63 63 61 55 57 74 77 89
30 28 32 35 41 44 43 42 40 52 82 97 99 98 100 99 100 98 90 88 87 76 80 86 79 88 91 80 78 76 76 73 78 80 74 73 59 50 53 61 71 74 76
33 35 44 47 54 56 50 47 67 86 89 93 96 95 98 100 100 100 96 84 79 77 85 89 81 74 84 78 75 70 75 75 67 74 74 64 51 48 54 65 68 60 55
39 49 55 58 62 64 62 59 80 89 90 87 92 93 98 96 94 100 99 83 87 86 86 87 79 72 66 75 74 61 64 67 66 70 62 58 56 59 61 61 58 51 44
50 61 66 70 75 76 79 78 78 90 85 71 88 97 100 100 91 100 99 88 86 86 78 87 85 80 80 76 75 60 55 61 58 61 62 60 65 71 67 58 51 46 43
63 71 74 77 79 77 75 79 82 82 87 93 97 100 100 100 99 100 97 84 87 82 80 82 81 79 81 76 77 61 44 56 53 59 59 58 60 72 58 52 49 45 42
Wind_Speed
10 11 13 12 13 12 11 11 12 12 13 14 12 13 14 14 13 13 13 13 14 14 15 15 14 13 12 12 13 13 13 12 13 15 16 16 13 15 14 13 13 13 15
6 15 16 13 13 14 13 12 12 13 13 13 13 13 13 13 13 13 13 13 14 14 15 15 13 13 11 12 11 11 12 13 14 15 15 16 14 15 15 15 15 13 14
2 17 16 15 14 14 14 14 13 13 14 14 14 13 13 13 12 13 15 12 11 13 13 15 13 13 11 11 11 11 12 12 13 14 14 13 13 13 12 12 14 14 15
1 17 17 16 15 14 16 15 16 15 15 16 16 15 13 14 13 13 13 11 11 12 16 13 12 12 10 10 11 11 10 11 12 13 11 11 12 12 12 12 13 13 14
1 15 17 17 16 16 16 16 16 16 17 16 16 15 15 14 13 12 12 12 11 13 13 13 10 10 9 9 10 10 10 10 11 11 10 10 11 11 12 13 13 14 15
5 4 13 16 16 17 17 17 17 17 19 18 17 16 16 13 14 14 12 13 14 14 14 11 7 9 8 8 9 9 9 8 10 11 10 10 9 10 12 14 15 17 18
9 5 8 13 17 16 18 18 18 19 20 21 19 18 16 15 14 14 12 13 13 13 12 10 9 9 8 8 9 10 10 8 14 12 10 9 8 10 13 14 15 16 16
9 8 8 6 14 18 18 18 18 20 21 20 20 18 17 16 16 15 14 11 14 13 10 8 9 9 8 9 10 12 11 11 16 12 10 7 8 11 14 16 19 17 16
10 10 9 7 6 15 19 20 19 17 20 21 19 18 18 17 18 17 16 13 13 13 11 9 9 9 8 8 11 14 13 16 15 12 9 6 9 12 17 20 17 16 16
14 11 11 10 9 9 18 20 21 19 21 22 22 20 19 20 22 20 16 14 14 13 12 11 10 9 9 9 12 14 15 18 15 11 8 7 8 20 20 17 15 15 14
14 13 14 13 10 9 12 19 20 21 21 24 24 22 22 22 24 21 19 16 16 14 13 12 11 10 11 11 13 15 18 19 15 10 7 10 17 20 18 17 16 16 14
21 17 13 15 13 11 10 12 19 23 23 26 26 26 24 27 28 25 20 17 17 16 14 13 13 13 13 13 17 17 18 16 13 10 8 12 20 20 19 19 17 16 15
22 19 13 12 15 15 13 12 12 15 22 26 28 28 28 28 29 27 23 20 17 17 15 14 14 15 16 17 19 18 16 14 11 8 9 15 21 20 19 19 17 15 14
26 23 17 16 15 17 18 16 16 15 15 18 26 31 31 31 33 33 29 26 23 21 19 19 17 18 17 18 17 17 14 11 9 9 12 21 22 19 17 18 16 13 12
22 21 21 20 18 16 19 19 18 19 17 16 16 22 31 32 36 36 33 29 27 25 23 20 18 19 20 19 17 14 12 10 10 16 17 21 22 19 16 17 16 12 11
19 18 18 17 16 16 17 18 20 19 18 16 16 17 22 30 34 25 24 22 24 24 23 20 20 20 21 20 18 14 13 14 17 21 21 17 15 17 17 15 13 11 10
17 15 13 12 12 12 15 17 19 20 19 18 16 15 19 21 22 20 22 21 13 17 18 19 20 21 21 19 18 18 17 17 21 20 17 17 16 13 11 13 11 10 9
10 12 10 8 9 12 14 16 19 19 19 18 15 16 16 18 20 23 24 29 24 15 17 19 20 21 22 18 19 19 18 19 16 16 15 15 14 15 11 13 11 10 9
15 16 16 16 15 12 13 15 16 18 19 19 17 16 15 15 20 23 27 32 32 29 22 18 21 22 22 19 17 18 16 15 14 14 11 10 10 10 13 15 14 12 11
12 14 15 16 16 16 15 12 14 16 18 19 18 19 18 17 18 21 28 31 30 28 28 27 27 24 23 22 17 16 16 14 12 11 12 12 12 12 13 14 16 13 13
19 24 25 25 24 21 18 12 13 18 18 18 18 19 19 19 20 26 30 32 33 36 36 33 26 26 23 26 22 13 13 12 12 11 11 11 11 12 13 15 16 16 14
27 31 30 29 27 24 20 18 17 15 19 21 21 20 22 21 21 29 34 37 35 34 34 33 34 28 16 28 11 9 3 4 7 9 11 10 11 13 14 14 16 14 12
31 32 32 30 28 27 21 21 21 17 16 18 22 23 24 23 23 29 35 37 36 37 38 38 42 37 25 21 23 7 3 3 6 5 7 11 11 13 14 15 13 13 10
29 34 32 29 28 27 23 22 24 24 21 23 22 25 24 25 24 29 36 38 41 38 36 40 41 41 44 35 27 8 7 10 3 4 4 7 11 13 15 15 12 11 9
30 31 31 30 29 26 25 26 24 30 26 24 23 24 25 27 26 31 35 38 40 40 38 36 34 30 26 27 30 25 14 9 8 4 4 5 9 11 13 14 11 9 6
25 28 27 28 28 25 24 25 27 30 28 24 21 25 28 27 29 33 36 37 38 39 38 39 39 33 27 24 25 29 28 10 9 6 3 5 6 7 11 12 10 7 5
Wind_Direction
193 187 182 183 178 180 177 165 160 156 153 152 148 147 151 152 148 145 143 140 136 133 127 123 120 118 118 117 117 118 116 108 105 105 104 99 91 90 84 90 91 90 90
229 184 182 184 186 181 187 178 173 169 162 161 160 159 156 155 154 153 153 151 149 142 137 130 124 124 121 122 118 121 115 110 108 109 108 104 99 93 87 85 86 92 97
218 191 185 190 191 189 188 188 180 176 174 173 173 170 170 164 164 157 156 154 152 153 143 127 126 120 130 131 131 126 126 118 116 115 107 99 94 91 92 90 85 89 92
308 189 191 190 194 197 193 191 190 185 185 183 183 181 176 171 168 163 167 168 171 154 138 135 130 131 139 138 136 136 132 126 125 122 107 102 95 91 90 91 90 88 86
332 196 203 198 197 200 200 199 200 196 190 200 189 190 186 178 178 175 175 170 167 153 144 146 143 142 143 146 146 146 141 134 136 127 113 106 101 98 98 98 95 91 89
36 235 223 217 212 204 204 204 204 204 198 202 194 192 187 188 183 172 171 168 165 157 150 152 155 173 163 163 160 161 157 151 152 133 123 113 106 111 108 106 96 95 89
26 348 277 248 228 218 208 210 211 213 210 203 204 201 200 198 192 170 183 172 169 171 177 190 193 187 185 185 180 173 171 155 160 146 129 116 112 117 118 111 107 94 89
353 346 343 280 242 235 221 215 218 219 219 216 212 202 202 199 191 184 189 195 191 193 201 198 190 197 204 198 186 181 176 160 157 149 136 113 125 127 121 120 103 93 85
338 324 319 316 269 238 239 224 223 224 225 227 218 212 209 205 193 192 193 191 201 199 200 195 195 197 199 195 184 179 178 167 159 155 138 122 137 137 125 109 103 98 91
305 300 301 297 289 259 238 237 231 225 230 230 234 230 219 208 198 197 195 194 200 201 195 191 190 187 184 182 176 176 172 167 163 156 142 131 149 125 114 109 105 99 94
312 289 281 288 278 278 252 241 240 234 231 235 236 233 223 213 209 210 204 196 202 203 191 184 172 176 178 168 170 170 165 167 167 162 146 141 138 116 108 105 102 95 97
316 309 292 272 274 266 263 251 242 242 241 235 235 237 228 224 211 216 212 205 200 198 187 173 167 174 170 162 161 163 167 168 171 166 155 152 133 120 116 105 99 98 98
312 306 305 292 269 259 257 260 255 249 244 241 239 236 233 230 217 214 212 203 193 194 179 172 174 174 169 165 162 165 168 170 175 170 159 159 135 126 120 103 100 100 99
299 290 283 297 292 268 262 257 259 260 262 252 244 239 234 232 223 214 213 203 193 190 184 183 180 170 167 164 163 162 163 170 181 164 156 155 134 126 118 106 106 105 104
295 290 280 293 289 274 264 263 255 256 260 266 255 252 243 233 229 214 211 202 192 186 185 184 178 171 168 165 164 164 161 158 148 148 150 130 127 118 115 108 111 113 109
307 304 298 291 284 282 264 260 258 257 255 257 252 239 246 235 224 223 200 185 185 183 182 181 174 169 166 163 158 155 147 145 162 146 129 128 123 123 111 107 112 117 115
318 319 314 299 292 288 269 264 256 256 252 245 241 234 237 238 227 216 200 166 197 183 180 174 169 166 162 159 154 149 149 150 142 144 140 137 130 125 105 106 117 121 118
9 8 4 337 307 291 275 270 261 253 248 243 240 233 227 235 239 225 204 177 177 192 180 174 171 164 161 160 153 147 156 153 150 144 145 138 139 127 113 127 123 125 122
58 48 42 37 27 355 302 273 262 254 245 242 236 228 223 229 227 217 192 179 176 169 176 182 187 172 163 158 153 148 148 148 149 146 142 144 142 146 139 142 135 134 117
14 2 351 343 337 334 337 297 264 250 241 240 235 224 216 220 219 208 194 185 179 174 170 181 188 169 167 154 141 134 134 133 132 132 136 141 143 141 140 140 142 124 120
341 336 330 323 320 311 305 294 269 249 241 232 228 226 215 210 212 202 194 186 181 177 172 168 167 170 156 158 132 106 101 116 128 133 138 140 142 141 143 146 150 146 122
330 330 324 314 310 303 288 274 261 254 238 232 231 228 226 217 212 197 196 185 182 176 174 172 169 156 164 163 149 130 140 101 94 120 139 142 144 144 149 151 158 157 156
327 323 316 309 305 303 294 275 257 237 228 220 225 227 219 214 215 204 197 193 186 184 182 181 174 170 164 172 158 142 146 171 137 99 120 142 150 152 154 153 160 159 159
314 316 312 307 305 300 292 269 244 231 216 217 218 220 209 212 211 209 199 191 187 185 183 186 181 184 174 174 173 167 145 139 166 156 105 120 145 151 154 154 160 155 157
310 310 307 305 304 300 291 278 248 235 234 232 207 208 207 207 209 209 203 196 194 195 194 191 187 191 184 169 171 162 150 146 144 139 152 149 136 147 155 155 164 162 159
303 307 312 305 304 298 291 284 256 241 229 214 195 197 202 198 203 207 201 200 199 196 198 198 195 193 186 179 186 174 168 163 167 146 125 147 150 150 155 158 162 167 163